Timeline UpdatesTrip UpdatesNews PostsPvt Posts♥♥Travel TipsAdmin PostsConv PostsFollowed PostsChat RequestsBlog PostsPNR Posts

Disclaimer
Search
 
 
Fri Dec 19, 2014 15:36:12 ISTHomeTrainsΣChainsAtlasPNRForumGalleryNewsFAQTripsMembersLoginFeedback
No Recent News for this Train
Other Trains in the News **new
Latest...
Temporary Stoppage at Mahadevsal Station every Sunday and Monday from 23.07.2013 to 21.08.2013 during Shravani Melaa
Tue Jul 23, 2013 (10:09AM)
⇐ Return Journey: Train# 18029

18030/Shalimar-Mumbai LTT [Kurla] Express

Time-Table HAS CHANGED.
Sep 28 2014 (12:58PM)
Change Departure Station:
Change Arrival Station:
Post a Train Travel TipPost a Train Travel Tip **new
Post a Comment/Question/Picture/VideoPost a Comment/Question/Picture/Video
Pantry/Catering
✕ NO Pantry Car
✓ Catering Avbl
RSA - Rake Sharing
runs with 5 dedicated rake.. no RSA...
Rake/Coach Composition
LOCO-HCPV-HCPV-SLR-GS-S13-S12-S11-S10-S9-S8-S7-S6-S5-S4-S3-S2-S1-B1-A1-GS-SLR-HCPV-HCPV
Loco
HWH/SRC WAP-4
News    PNR    Forum    Time-Table    Availability    Fare Chart    Map    Arr/Dep History    Trips    Gallery    ΣChains    X/O    Timeline    
Travel Time: 0h 33m    0 halts    Distance: 39 km    Avg Speed: 70 km/hr
Type: Mail/Express
Zone: SER/South Eastern
Departs @ 17:50 (Avg 3m late)
Platform# 3
SMTWTFS
Kharagpur Junction/KGP 
Arrives @ 18:23 (Avg 6m late)
Platform# ???
SMTWTFS
Jhargram/JGM 

0 halts. 5 intermediate Stations between Kharagpur Junction and Jhargram

Show ALL intermediate Stations  Show Old Time-Table

#TrkCodeStation NameX/OArrivesAvgDepartsAvgHaltPFDay#KmSpeedElevZoneAddress
1/==/SHMKolkata Shalimar (2)  -15:00+111-112.3285mSERSHIBPUR . DIST- Howrah, West Bengal
2/==/SRCKolkata Santragachi Junction (6)  15:11 15:10+615:12+71 2m11-107.6657mSERDist: Howrah - 711104, West Bengal
3/==/ULBUluberia (6)XO  15:36 15:35+1015:37+121 2m11-82.85010mSERdist - howrah, West Bengal
4/==/MCAMecheda (6)X  16:09 16:08+916:10+211 2m--1-56.82710mSERdist - purba Medinipur, West Bengal
5/==/PKUPanskura Junction (6)X  16:39 16:38+816:40+201 2m--1-44.4489mSERPanskura, West Bengal
6/==/KGPKharagpur Junction (10)»X  17:35+217:50+315m310.07142mSERDist: West Medinipur, West Bengal
7/==/JGMJhargram (4)•X  18:24 18:23+618:25+61 2m--139.18382mSERJhargram, West Bengal
8/==/CKUChakulia (4)  18:47 18:46+318:48+31 2m--168.487126mSERChakulia, Jharkhand
9/==/GTSGhatsila (3)  19:11 19:09+319:12 19:11+31 2m--198.960103mSEREast Singhbhum, Jharkhand
10/==/GUDGaludih (4)  19:23 19:21+419:24 19:23+41 2m--1108.946120mSEREast Singhbhum, Jharkhand
11/==/RHERakha Mines (2)  19:34 19:32+119:35 19:34+11 2m--1115.845118mSEREast Singhbhum, Jharkhand
12/==/TATATatanagar Junction (5)X  20:05 20:00+820:10 20:05+95m31135.156164mSER91-657-2423026, Jharkhand
13/==/SINISini Junction (3)  20:36 20:34+920:37 20:35+101m--1162.161182mSERNational Highway 33, Jharkhand
14/==/RKSNRajkharsawan Junction (3)  20:53 20:50+1020:54 20:51+111m--1177.371189mSERSaraikela Kharswan District, Jharkhand
15/==/CKPChakradharpur (3)X  21:11 21:08+1121:16 21:13+115m11197.379235mSERChakradharpur (West Singhbhum), Jharkhand
16/==/SWRSonua  21:31 21:29+1421:32 21:30+151m--1218.364287mSERSonua, Jharkhand
17/==/GOLGoilkera (2)X  21:44 21:42+1421:45 21:43+151m--1231.157333mSERGoilkera, Jharkhand
18/==/MOUManoharpur  22:15 22:12+1322:16 22:13+141m--1258.674228mSERManoharpur, Jharkhand
19/==/BNDMBondamunda (2)  22:42 22:40+2022:43 22:41+191m--1291.921213mSERRourkela, Odisha
20/--/ROURourkela Junction (5)X  23:03 23:00+823:13 23:10+910m21298.469198mSERRourkela, Odisha
21/==/GPRaj Gangpur (3)  23:40 23:36+1323:41 23:37+141m11328.269237mSERRaj Ganpur, Odisha
22/==/BMBBamra (3)  00:09 00:07+1100:10 00:08+121m--2362.852259mSERBamra PH : 06642-229268, Odisha
23/==/JSGJharsuguda Junction (5)X  00:50+100:55+55m12399.388236mSERJharsuguda, Odisha
24/==/BRJNBrajrajnagarX  01:04 01:03+1101:05+121 2m--2411.067212mSECRBrajrajnagar, Odisha
25/==/BPHBelpahar (2)  01:14 01:13+1501:15+151 2m--2419.985235mSECRBelpahar, Odisha
26/==/RIGRaigarh (3)  01:51+1801:56+215m22471.093220mSECRRaigarh, Chhattisgarh
27/==/KHSKharsia  02:19 02:18+3002:20+301 2m22504.977259mSECRNational Highway 200, Chhattisgarh
28/==/SKTSakti (4)  02:33 02:32+3202:34+321 2m--2520.376237mSECRJanjgir-Champa, Chhattisgarh
29/==/CPHChampa Junction (3)X  02:58+3603:03+345m22550.772264mSECRNational Highway 200 (07819-245767), Chhattisgarh
30/==/NIANaila (3)X  03:13 03:12+3603:14+361 2m12561.675273mSECRJanjgir, Chhattisgarh
31/==/AKTAkaltara (4)  03:27 03:26+3503:28+351 2m22576.529284mSECRDist. Janjgir Champa, Chhattisgarh
32/==/BSPBilaspur Junction (8)  04:25+504:45+1320m32603.849271mSECRBilaspur, Chhattisgarh
33/==/BYLBelha  05:04+1105:05+121m--2619.380269mSECRCollege Road, Chhattisgarh
34/==/BYTBhatapara (4)  05:29 05:28+1705:30+171 2m--2649.987270mSECRBanjari Road, Chhattisgarh
35/==/TLDTilda (3)  05:49 05:48+1805:50+181 2m12676.051293mSECRBanjari Rd, Chhattisgarh
36/==/RRaipur Junction (6)X  06:35+1706:45+1910m12714.270297mSECRRaipur, Chhattisgarh
37/==/DBECDevbaloda CharodaX  07:02-07:03-1m--2734.141310mSECRBhilai, Chhattisgarh
38/==/BIABhilai (2)X  07:09 07:08+2707:10+261 2m--2737.546309mSECRBhilai, Chhattisgarh
39/==/BPHBBhilai Power House (3)  07:17 07:16+707:18+71 2m22742.227312mSECRBhilai, Chhattisgarh
40/==/BQRBhilai Nagar (2)  07:29 07:28+1907:30+191 2m--2746.618298mSECRBhilai, Chhattisgarh
41/==/DURGDurg Junction (6)X  07:45+1507:55+1410m12751.187299mSECRPh: 91-788-2322059, Chhattisgarh
42/==/RJNRaj Nandgaon (3)  08:16+2108:21+225m22781.682313mSECRRajnandgaon, Chhattisgarh
43/==/DGGDongargarh (2)  08:44+2808:45+301m22813.161353mSECRDongargarh, Chhattisgarh
44/==/SKSSalekasa (2)  09:21 09:20+3509:22+351 2m--2848.980312mSECRRajnandgaon, Chhattisgarh
45/==/AGNAmgaon (2)  09:34 09:33+3609:35+381 2m22863.646317mSECRGondia, Maharashtra
46/==/GGondia Junction (7)X  10:05+3010:15+3410m--2886.492316mSECRGondia 441601, Maharashtra
47/==/TROTirora (3)X  10:35 10:34+4110:36+431 2m22915.772282mSECRDist Gondia, Maharashtra
48/==/TMRTumsar Road (5)X  10:54 10:53+4210:55+421 2m12936.067267mSECRDistt. Bhandara, Maharashtra
49/==/BRDBhandara Road (3)  11:12 11:11+4311:13+431 2m22954.078266mSECRState Highway 252 Bhandara District, Maharashtra
50/==/KPKamptee (3)X  11:51 11:50+4211:52+421 2m221001.933290mSECRKamptee, Maharashtra
51/==/ITRItwari (3)O  12:12 12:11+4212:13+451 2m--21012.44306mSECRNagpur, Maharashtra
52|--|NGPNagpur Junction (8)X  13:15+813:40+925m721016.223314mCRNagpur 440001, Maharashtra
53/==/AJNIAjni (3)  13:48+1513:49+161m221019.282310mCRNagpur 440003, Maharashtra
54/==/SNISindi (2)  14:21+2014:22+211m121063.157258mCRWardha, Maharashtra
55/==/SEGMSewagram Junction (5)X  14:53+1714:54+181m121092.420279mCRWardha, Maharashtra
56/==/WRWardha Junction (4)  15:02+1615:05+153m221095.184289mCRWardha 442001, Maharashtra
57/==/PLOPulgaon Junction (3)  15:26+1815:27+191m221124.670273mCRPulgaon, Maharashtra
58/==/DMNDhamangaon (2)  15:44+1815:45+191m121144.663300mCRDhamangaon, Maharashtra
59/==/CNDChandur (2)X  16:01+1816:02+191m--21161.330331mCRAmravati Distt, Maharashtra
60/==/BDBadnera Junction (4)  17:00+217:05+45m121190.090335mCRBadnera (Amravati) 444701, Maharashtra
61/==/MZRMurtizapur (3)  17:33+917:35+92m121231.874303mCRMurtajapur, Maharashtra
62/==/AKAkola Junction (7)  18:05+1318:10+135m121269.086284mCRAkola-444001, Maharashtra
63/==/PSParas (2)  18:24+1718:25+181m--21289.074282mCRAkola, Maharashtra
64/==/SEGShegaon (2)  18:39+2018:40+211m--21306.183281mCRShegaon 444203, Maharashtra
65/==/JMJalamb Junction (3)X  18:49+2318:50+241m--21318.682259mCRJalamb, Maharashtra
66/==/NNNandura (2)X  18:59+2519:00+261m--21330.870267mCRNandura, Maharashtra
67/==/MKUMalkapur (2)X  19:24+2419:25+251m121358.762252mCRMalkapur, Maharashtra
68/==/BDWDBodwad (2)X  19:44+2319:45+251m--21378.340294mCRBodwad, Maharashtra
69/==/BSLBhusaval Junction (8)X  20:30+1320:45+1315m521408.660208mCRBhusaval 425201, Maharashtra
70/==/JLJalgaon Junction (4)  21:09+1621:10+171m221432.784213mCRJalgaon 425001, Maharashtra
71/==/PCPachora Junction (4)  21:44+2121:45+231m--21480.493264mCRPachora 424201, Maharashtra
72/==/CSNChalisgaon Junction (3)  22:14+2522:15+271m--21525.387352mCRChalisgaon 424101, Maharashtra
73/==/NGNNandgaon (3)  22:44+3422:45+361m--21567.461476mCRNandgaon, Maharashtra
74/==/MMRManmad Junction (6)  23:12 23:10+3723:15+383 5m321592.877580mCRManmad 423104, Maharashtra
75/==/LSLasalgaon (3)  23:34+4023:35+401m--21617.372592mCRLasalgaon, Maharashtra
76/==/NKNasik Road (3)X  00:19 00:15+3400:20+321 5m331665.538563mCRNashik 422101, Maharashtra
77/==/DVLDevlali (3)X  00:29+3200:30+331m231671.336561mCRDist. Nashik 422401, Maharashtra
78/==/IGPIgatpuri (4)XO  01:49 01:45+801:50+141 5m--31716.220589mCRIgatpuri 422403, Maharashtra
79/==/KSRAKasara (4)XO  02:39 02:33+1602:40 02:35+181 2m--31730.658290mCRDist. Thane 421602, Maharashtra
80/==/KYNKalyan Junction (8)O  03:50 03:45+1103:55 03:50+135m631798.06710mCRKalyan 421301, Maharashtra
81/==/TNAThane (10)  04:09 04:08+3204:10+341 2m831818.22510mCRThane (West) 400602, Maharashtra
82/==/LTTMumbai Lokmanya Tilak Terminus (5)  04:50+14-331834.7-7mCRMumbai - 400089, Maharashtra
Scroll to Top
Scroll to Bottom


Go to Mobile site